{"data":{"norad_id":62424,"epoch":"2026-09-21T13:12:20.043936Z","epoch_age_seconds":83830,"freshness":"FRESH","line1":"1 62424U 24249R   26264.55023199  .00012428  00000+0  46031-3 0  9996","line2":"2 62424  43.0030 299.5848 0001735 266.6657  93.3996 15.27586143 97635","mean_motion":15.27586143,"eccentricity":0.0001735,"inclination_deg":43.003,"raan_deg":299.5848,"arg_perigee_deg":266.6657,"mean_anomaly_deg":93.3996,"bstar":0.00046031,"rev_number":9763,"period_min":94.266369631503,"perigee_km":481.84028915311,"apogee_km":484.22111434562,"semimajor_km":6861.1677017494,"source":"CELESTRAK","updated_at":"2026-09-22T09:00:49.578406Z"}}